Marshfield, WI

4:08 AM CDT on March 23, 2017 (GMT -0500)
Marshfield Municipal

Weather History for KMFI - November, 2010

Change the Weather History Date:

Monday, November 8, 2010

  Actual Average Record
Temperature  
Mean Temperature 49 °F -  
Max Temperature 63 °F 45 °F 73 °F (1999)
Min Temperature 35 °F 26 °F -2 °F (1991)
Degree Days  
Heating Degree Days 16    
Moisture  
Dew Point 35 °F    
Average Humidity 66    
Maximum Humidity 86    
Minimum Humidity 40    
Precipitation  
Precipitation 0.00 in - - ()
Sea Level Pressure  
Sea Level Pressure 29.88 in    
Wind  
Wind Speed 5 mph (ESE)    
Max Wind Speed 14 mph    
Max Gust Speed 17 mph    
Visibility 10 miles    
Events      
Averages and records for this station are not official NWS values.
T = Trace of Precipitation, MM = Missing Value Source: NWS Daily Summary

Daily Weather History Graph

Daily Weather History Graph

Search for Another Location

Airport or City:

Trip Planner

Search our weather history database for the weather conditions in past years. The results will help you decide how hot, cold, wet, or windy it might be!

Date:

Astronomy

Nov. 08, 2010 Rise Set
Actual Time 6:47 AM CST 4:40 PM CST
Civil Twilight 6:17 AM CST 5:11 PM CST
Nautical Twilight 5:42 AM CST 5:46 PM CST
Astronomical Twilight 5:07 AM CST 6:20 PM CST
Moon 9:42 AM CST (11/8) 6:29 PM CST (11/8)
Length of Visible Light 10h 54m
Length of Day
9h 52m
Waxing Crescent, 8% of the Moon is Illuminated
Nov 8
Waxing Crescent
Nov 13
First Quarter
Nov 21
Full
Nov 28
Last Quarter
Dec 5
New

Hourly Weather History & Observations

Time (CST) Temp. Windchill Dew Point Humidity Pressure Visibility Wind Dir Wind Speed Gust Speed Precip Events Conditions
12:54 AM 39.9 °F - 30.9 °F 70% 29.97 in 10.0 mi Calm Calm - N/A   Clear
1:54 AM 37.9 °F 34.4 °F 30.9 °F 76% 29.97 in 10.0 mi East 4.6 mph - N/A   Clear
2:54 AM 39.0 °F 36.8 °F 30.9 °F 73% 29.95 in 10.0 mi East 3.5 mph - N/A   Clear
3:54 AM 37.0 °F - 30.9 °F 79% 29.94 in 10.0 mi Calm Calm - N/A   Clear
4:54 AM 36.0 °F 33.3 °F 30.0 °F 79% 29.93 in 10.0 mi East 3.5 mph - N/A   Clear
5:54 AM 35.1 °F 31.0 °F 30.0 °F 82% 29.93 in 10.0 mi East 4.6 mph - N/A   Clear
6:54 AM 35.1 °F 29.3 °F 30.0 °F 82% 29.93 in 8.0 mi East 6.9 mph - N/A   Clear
7:54 AM 37.9 °F 33.5 °F 33.1 °F 83% 29.92 in 8.0 mi East 5.8 mph - N/A   Clear
8:54 AM 42.1 °F 37.7 °F 34.0 °F 73% 29.91 in 9.0 mi ESE 6.9 mph - N/A   Clear
9:54 AM 48.9 °F - 37.0 °F 64% 29.89 in 10.0 mi ESE 9.2 mph - N/A   Clear
10:54 AM 54.0 °F - 37.0 °F 53% 29.87 in 10.0 mi SE 13.8 mph - N/A   Clear
11:54 AM 57.9 °F - 39.0 °F 49% 29.83 in 10.0 mi ESE 12.7 mph - N/A   Clear
12:54 PM 61.0 °F - 39.0 °F 44% 29.82 in 10.0 mi ESE 9.2 mph 17.3 mph N/A   Clear
2:54 PM 63.0 °F - 37.9 °F 40% 29.79 in 10.0 mi SSE 11.5 mph - N/A   Clear
3:54 PM 62.1 °F - 37.9 °F 41% 29.79 in 10.0 mi SSE 6.9 mph - N/A   Clear
4:54 PM 55.0 °F - 37.9 °F 53% 29.81 in 10.0 mi SE 5.8 mph - N/A   Clear
5:54 PM 53.1 °F - 37.0 °F 55% 29.83 in 10.0 mi SE 3.5 mph - N/A   Clear
6:54 PM 53.1 °F - 36.0 °F 52% 29.84 in 10.0 mi South 4.6 mph - N/A   Clear
7:54 PM 50.0 °F - 36.0 °F 59% 29.85 in 10.0 mi SE 3.5 mph - N/A   Clear
8:54 PM 44.1 °F - 36.0 °F 73% 29.86 in 10.0 mi Calm Calm - N/A   Clear
9:54 PM 41.0 °F 38.0 °F 35.1 °F 79% 29.86 in 10.0 mi ENE 4.6 mph - N/A   Clear
10:54 PM 41.0 °F 37.1 °F 35.1 °F 79% 29.86 in 9.0 mi ENE 5.8 mph - N/A   Clear
11:54 PM 39.9 °F 35.1 °F 36.0 °F 86% 29.87 in 8.0 mi East 6.9 mph - N/A   Clear